40P/Vaisala 1 (2025)

Japanese version
Home page
Updated on May 2, 2025

---------------------------------------------------------------------

* Profile

* Pictures

* Orbital Elements

Epoch 2025 May 5.0 TT = JDT 2460800.5
T 2025 Nov. 11.88667 TT                                 Pike
q   1.8236898            (2000.0)            P               Q
n   0.08945439     Peri.   52.02899     -0.98725359     +0.02606259
a   4.9514792      Node   128.90022     -0.06880244     -0.95944723
e   0.6316879      Incl.   11.63906     +0.14351506     -0.28068086
P  11.0
From 46 observations 2024 Nov. 29-2025 Mar. 18, mean residual 0".5.

* Finding Charts

* Magnitudes Graph

        m1 = 10.5 + 5 log d + 15.0 log r

---------------------------------------------------------------------

The orbital elements are published on M.P.E.C. 2025-G119.
The charts are made with StellaNavigator Ver.11 (AstroArts).
The magnitudes graphs are made with Comet for Windows.

---------------------------------------------------------------------

Copyright(C) Seiichi Yoshida (comet@aerith.net). All rights reserved.